Watertown, NY

10:48 AM EDT on April 23, 2018 (GMT -0400)
Watertown International

Weather History for KART - November, 2013

Change the Weather History Date:

Tuesday, November 5, 2013

  Actual Average Record
Temperature  
Mean Temperature 47 °F 42 °F  
Max Temperature 55 °F 51 °F 71 °F (1988)
Min Temperature 38 °F 33 °F 18 °F (1953)
Degree Days  
Heating Degree Days 18 23  
Month to date heating degree days 117 112  
Since 1 July heating degree days 805 908  
Cooling Degree Days 0 0  
Month to date cooling degree days 0 0  
Year to date cooling degree days 481 362  
Moisture  
Dew Point 26 °F    
Average Humidity 46    
Maximum Humidity 56    
Minimum Humidity 36    
Precipitation  
Precipitation 0.00 in 0.12 in 1.18 in (1985)
Month to date precipitation 0.71 0.63  
Year to date precipitation 29.90 29.80  
Sea Level Pressure  
Sea Level Pressure 30.46 in    
Wind  
Wind Speed 7 mph (South)    
Max Wind Speed 15 mph    
Max Gust Speed 21 mph    
Visibility 10 miles    
Events      
T = Trace of Precipitation, MM = Missing Value Source: NWS Daily Summary

Daily Weather History Graph

Daily Weather History Graph

Search for Another Location

Airport or City:

Astronomy

Nov. 05, 2013 Rise Set
Actual Time 6:46 AM EST 4:48 PM EST
Civil Twilight 6:15 AM EST 5:19 PM EST
Nautical Twilight 5:41 AM EST 5:53 PM EST
Astronomical Twilight 5:07 AM EST 6:26 PM EST
Moon 9:01 AM EST (11/5) 6:44 PM EST (11/5)
Length of Visible Light 11h 03m
Length of Day
10h 02m
Waxing Crescent, 6% of the Moon is Illuminated
Nov 5
Waxing Crescent
Nov 10
First Quarter
Nov 17
Full
Nov 25
Last Quarter
Dec 2
New

Hourly Weather History & Observations

Time (EST) Temp. Windchill Dew Point Humidity Pressure Visibility Wind Dir Wind Speed Gust Speed Precip Events Conditions
12:56 AM 39.0 °F 33.4 °F 17.1 °F 41% 30.52 in 10.0 mi SSE 8.1 mph - N/A   Clear
1:56 AM 39.0 °F 36.8 °F 16.0 °F 39% 30.52 in 10.0 mi SSE 3.5 mph - N/A   Clear
2:56 AM 39.0 °F 36.8 °F 17.1 °F 41% 30.51 in 10.0 mi Variable 3.5 mph - N/A   Clear
3:56 AM 39.0 °F 33.4 °F 16.0 °F 39% 30.51 in 10.0 mi South 8.1 mph 17.3 mph N/A   Clear
4:56 AM 37.9 °F 32.1 °F 17.1 °F 43% 30.51 in 10.0 mi South 8.1 mph 16.1 mph N/A   Clear
5:56 AM 39.0 °F 34.8 °F 17.1 °F 41% 30.51 in 10.0 mi South 5.8 mph - N/A   Clear
6:56 AM 37.9 °F 32.7 °F 19.0 °F 47% 30.51 in 10.0 mi South 6.9 mph - N/A   Clear
7:56 AM 39.9 °F 33.4 °F 19.9 °F 45% 30.51 in 10.0 mi South 10.4 mph - N/A   Clear
8:56 AM 43.0 °F 36.4 °F 21.0 °F 42% 30.51 in 10.0 mi South 12.7 mph 19.6 mph N/A   Clear
9:56 AM 46.9 °F - 23.0 °F 39% 30.50 in 10.0 mi South 11.5 mph 20.7 mph N/A   Clear
10:56 AM 50.0 °F - 25.0 °F 38% 30.50 in 10.0 mi South 11.5 mph - N/A   Clear
11:56 AM 52.0 °F - 27.0 °F 38% 30.48 in 10.0 mi SSW 8.1 mph - N/A   Clear
12:56 PM 54.0 °F - 28.9 °F 38% 30.45 in 10.0 mi South 8.1 mph - N/A   Scattered Clouds
1:56 PM 54.0 °F - 30.0 °F 40% 30.44 in 10.0 mi SSW 5.8 mph - N/A   Mostly Cloudy
2:56 PM 55.0 °F - 32.0 °F 42% 30.43 in 10.0 mi South 6.9 mph - N/A   Mostly Cloudy
3:56 PM 53.1 °F - 33.1 °F 47% 30.42 in 10.0 mi SSW 4.6 mph - N/A   Mostly Cloudy
4:56 PM 51.1 °F - 33.1 °F 50% 30.42 in 10.0 mi Calm Calm - N/A   Mostly Cloudy
5:56 PM 50.0 °F - 33.1 °F 52% 30.42 in 10.0 mi South 3.5 mph - N/A   Clear
6:56 PM 48.0 °F - 33.1 °F 56% 30.41 in 10.0 mi Variable 3.5 mph - N/A   Clear
7:56 PM 48.0 °F - 34.0 °F 58% 30.40 in 10.0 mi South 4.6 mph - N/A   Clear
8:56 PM 48.9 °F - 33.1 °F 54% 30.40 in 10.0 mi South 8.1 mph - N/A   Clear
9:56 PM 48.9 °F - 33.1 °F 54% 30.37 in 10.0 mi South 6.9 mph 16.1 mph N/A   Clear
10:56 PM 50.0 °F - 33.1 °F 52% 30.34 in 10.0 mi South 9.2 mph - N/A   Clear
11:56 PM 48.9 °F - 34.0 °F 56% 30.35 in 10.0 mi South 8.1 mph - N/A   Clear